contact:dominique.lefevre@mio.osupytheas.fr, maurice.libes@osupytheas.fr, didier.mallarino@osupytheas.fr
Project:EMSO http://www.emso-fr.org/EMSO-France
Depth: 2436.0 m
Title:EMSO Ligure Ouest : Data MII capteur MICROCAT
DateTime_Computer,Latitude,Longitude,Temperature,Conductivity,Pressure,DateTime_Instrument
DateTime_Computer,Latitude,Longitude,degC,S m-1,dbar,DateTime_Instrument
2017-10-29T00:01:23Z,42.805,6.029,13.2964,4.59975,2471.987,2017-10-29T02:02:49Z
2017-10-29T00:02:58Z,42.805,6.029,13.2951,4.59968,2471.979,2017-10-29T02:04:24Z
2017-10-29T00:04:33Z,42.805,6.029,13.2957,4.59964,2471.964,2017-10-29T02:05:59Z
2017-10-29T00:06:08Z,42.805,6.029,13.2962,4.59980,2471.964,2017-10-29T02:07:34Z
2017-10-29T00:07:43Z,42.805,6.029,13.2966,4.59975,2471.979,2017-10-29T02:09:08Z
2017-10-29T00:09:17Z,42.805,6.029,13.2978,4.59983,2471.979,2017-10-29T02:10:43Z
2017-10-29T00:10:52Z,42.805,6.029,13.2964,4.59976,2471.957,2017-10-29T02:12:18Z
2017-10-29T00:12:27Z,42.805,6.029,13.2961,4.59973,2471.964,2017-10-29T02:13:53Z
2017-10-29T00:14:02Z,42.805,6.029,13.2959,4.59985,2471.957,2017-10-29T02:15:28Z
2017-10-29T00:15:37Z,42.805,6.029,13.2959,4.59977,2472.024,2017-10-29T02:17:03Z
2017-10-29T00:17:12Z,42.805,6.029,13.2978,4.59973,2471.979,2017-10-29T02:18:37Z
2017-10-29T00:18:46Z,42.805,6.029,13.2951,4.59975,2472.024,2017-10-29T02:20:12Z
2017-10-29T00:20:21Z,42.805,6.029,13.2973,4.59975,2471.957,2017-10-29T02:21:47Z
2017-10-29T00:21:56Z,42.805,6.029,13.2966,4.59983,2471.964,2017-10-29T02:23:22Z
2017-10-29T00:23:31Z,42.805,6.029,13.2961,4.59975,2471.979,2017-10-29T02:24:57Z
2017-10-29T00:25:06Z,42.805,6.029,13.2961,4.59981,2471.979,2017-10-29T02:26:32Z
2017-10-29T00:26:41Z,42.805,6.029,13.2961,4.59979,2472.002,2017-10-29T02:28:06Z
2017-10-29T00:28:15Z,42.805,6.029,13.2960,4.59975,2471.987,2017-10-29T02:29:41Z
2017-10-29T00:29:50Z,42.805,6.029,13.2975,4.59975,2471.964,2017-10-29T02:31:16Z
2017-10-29T00:31:25Z,42.805,6.029,13.2958,4.59982,2471.979,2017-10-29T02:32:51Z
2017-10-29T00:33:00Z,42.805,6.029,13.2971,4.59970,2471.979,2017-10-29T02:34:26Z
2017-10-29T00:34:35Z,42.805,6.029,13.2960,4.59979,2471.979,2017-10-29T02:36:01Z
2017-10-29T00:36:10Z,42.805,6.029,13.2967,4.59978,2472.002,2017-10-29T02:37:35Z
2017-10-29T00:37:45Z,42.805,6.029,13.2972,4.59975,2471.979,2017-10-29T02:39:10Z
2017-10-29T00:39:19Z,42.805,6.029,13.2961,4.59973,2472.002,2017-10-29T02:40:45Z
2017-10-29T00:40:54Z,42.805,6.029,13.2961,4.59975,2471.964,2017-10-29T02:42:20Z
2017-10-29T00:42:29Z,42.805,6.029,13.2969,4.59977,2471.979,2017-10-29T02:43:55Z
2017-10-29T00:44:04Z,42.805,6.029,13.2955,4.59972,2471.979,2017-10-29T02:45:30Z
2017-10-29T00:45:39Z,42.805,6.029,13.2964,4.59973,2471.957,2017-10-29T02:47:05Z
2017-10-29T00:47:14Z,42.805,6.029,13.2961,4.59973,2471.979,2017-10-29T02:48:39Z
2017-10-29T00:48:48Z,42.805,6.029,13.2957,4.59975,2471.964,2017-10-29T02:50:14Z
2017-10-29T00:50:23Z,42.805,6.029,13.2954,4.59978,2471.979,2017-10-29T02:51:49Z
2017-10-29T00:51:58Z,42.805,6.029,13.2958,4.59978,2471.987,2017-10-29T02:53:24Z
2017-10-29T00:53:33Z,42.805,6.029,13.2966,4.59979,2471.979,2017-10-29T02:54:59Z
2017-10-29T00:55:08Z,42.805,6.029,13.2966,4.59971,2471.979,2017-10-29T02:56:34Z
2017-10-29T00:56:43Z,42.805,6.029,13.2961,4.59982,2472.024,2017-10-29T02:58:08Z
2017-10-29T00:58:17Z,42.805,6.029,13.2963,4.59978,2471.964,2017-10-29T02:59:43Z
2017-10-29T00:59:52Z,42.805,6.029,13.2958,4.59983,2471.964,2017-10-29T03:01:18Z
2017-10-29T01:01:27Z,42.805,6.029,13.2961,4.59975,2472.002,2017-10-29T03:02:53Z
2017-10-29T01:03:02Z,42.805,6.029,13.2957,4.59974,2472.024,2017-10-29T03:04:28Z
2017-10-29T01:04:37Z,42.805,6.029,13.2957,4.59972,2471.979,2017-10-29T03:06:03Z
2017-10-29T01:06:12Z,42.805,6.029,13.2964,4.59974,2471.942,2017-10-29T03:07:37Z
2017-10-29T01:07:46Z,42.805,6.029,13.2951,4.59978,2471.979,2017-10-29T03:09:12Z
2017-10-29T01:09:21Z,42.805,6.029,13.2954,4.59974,2472.002,2017-10-29T03:10:47Z
2017-10-29T01:10:56Z,42.805,6.029,13.2954,4.59980,2471.979,2017-10-29T03:12:22Z
2017-10-29T01:12:31Z,42.805,6.029,13.2949,4.59972,2471.979,2017-10-29T03:13:57Z
2017-10-29T01:14:06Z,42.805,6.029,13.2963,4.59975,2471.964,2017-10-29T03:15:32Z
2017-10-29T01:15:41Z,42.805,6.029,13.2975,4.59973,2471.987,2017-10-29T03:17:06Z
2017-10-29T01:17:15Z,42.805,6.029,13.2963,4.59969,2472.002,2017-10-29T03:18:41Z
2017-10-29T01:18:50Z,42.805,6.029,13.2957,4.59972,2471.987,2017-10-29T03:20:16Z
2017-10-29T01:20:25Z,42.805,6.029,13.2959,4.59972,2471.957,2017-10-29T03:21:51Z
2017-10-29T01:22:00Z,42.805,6.029,13.2953,4.59970,2471.979,2017-10-29T03:23:26Z
2017-10-29T01:23:35Z,42.805,6.029,13.2958,4.59973,2471.987,2017-10-29T03:25:01Z
2017-10-29T01:25:10Z,42.805,6.029,13.2952,4.59974,2471.979,2017-10-29T03:26:35Z
2017-10-29T01:26:44Z,42.805,6.029,13.2961,4.59977,2471.987,2017-10-29T03:28:10Z
2017-10-29T01:28:19Z,42.805,6.029,13.2957,4.59971,2471.979,2017-10-29T03:29:45Z
2017-10-29T01:29:54Z,42.805,6.029,13.2972,4.59972,2471.979,2017-10-29T03:31:20Z
2017-10-29T01:31:29Z,42.805,6.029,13.2953,4.59973,2472.002,2017-10-29T03:32:55Z
2017-10-29T01:33:04Z,42.805,6.029,13.2954,4.59973,2472.002,2017-10-29T03:34:30Z
2017-10-29T01:34:39Z,42.805,6.029,13.2953,4.59981,2472.002,2017-10-29T03:36:04Z
2017-10-29T01:36:13Z,42.805,6.029,13.2973,4.59980,2471.979,2017-10-29T03:37:39Z
2017-10-29T01:37:48Z,42.805,6.029,13.2961,4.59980,2472.002,2017-10-29T03:39:14Z
2017-10-29T01:39:23Z,42.805,6.029,13.2961,4.59978,2471.979,2017-10-29T03:40:49Z
2017-10-29T01:40:58Z,42.805,6.029,13.2967,4.59974,2471.979,2017-10-29T03:42:24Z
2017-10-29T01:42:33Z,42.805,6.029,13.2975,4.59978,2471.987,2017-10-29T03:43:59Z
2017-10-29T01:44:08Z,42.805,6.029,13.2968,4.59975,2472.002,2017-10-29T03:45:33Z
2017-10-29T01:45:42Z,42.805,6.029,13.2962,4.59980,2471.979,2017-10-29T03:47:08Z
2017-10-29T01:47:17Z,42.805,6.029,13.2966,4.59973,2471.964,2017-10-29T03:48:43Z
2017-10-29T01:48:52Z,42.805,6.029,13.2967,4.59973,2472.002,2017-10-29T03:50:18Z
2017-10-29T01:50:27Z,42.805,6.029,13.2967,4.59972,2471.964,2017-10-29T03:51:53Z
2017-10-29T01:52:02Z,42.805,6.029,13.2961,4.59973,2471.979,2017-10-29T03:53:28Z
2017-10-29T01:53:37Z,42.805,6.029,13.2951,4.59974,2471.964,2017-10-29T03:55:02Z
2017-10-29T01:55:11Z,42.805,6.029,13.2955,4.59973,2472.002,2017-10-29T03:56:37Z
2017-10-29T01:56:46Z,42.805,6.029,13.2958,4.59977,2471.964,2017-10-29T03:58:12Z
2017-10-29T01:58:21Z,42.805,6.029,13.2957,4.59968,2471.964,2017-10-29T03:59:47Z
2017-10-29T01:59:56Z,42.805,6.029,13.2954,4.59971,2471.964,2017-10-29T04:01:22Z
2017-10-29T02:01:31Z,42.805,6.029,13.2961,4.59978,2471.957,2017-10-29T04:02:57Z
2017-10-29T02:03:06Z,42.805,6.029,13.2958,4.59978,2472.002,2017-10-29T04:04:31Z
2017-10-29T02:04:40Z,42.805,6.029,13.2964,4.59974,2471.979,2017-10-29T04:06:06Z
2017-10-29T02:06:15Z,42.805,6.029,13.2975,4.59982,2471.964,2017-10-29T04:07:41Z
2017-10-29T02:07:50Z,42.805,6.029,13.2978,4.59978,2471.987,2017-10-29T04:09:16Z
2017-10-29T02:09:25Z,42.805,6.029,13.2970,4.59977,2471.987,2017-10-29T04:10:51Z
2017-10-29T02:11:00Z,42.805,6.029,13.2964,4.59982,2471.964,2017-10-29T04:12:26Z
2017-10-29T02:12:35Z,42.805,6.029,13.2973,4.59972,2471.957,2017-10-29T04:14:00Z
2017-10-29T02:14:09Z,42.805,6.029,13.2973,4.59976,2472.002,2017-10-29T04:15:35Z
2017-10-29T02:15:44Z,42.805,6.029,13.2975,4.59973,2472.002,2017-10-29T04:17:10Z
2017-10-29T02:17:19Z,42.805,6.029,13.2978,4.59974,2471.964,2017-10-29T04:18:45Z
2017-10-29T02:18:54Z,42.805,6.029,13.2961,4.59973,2472.002,2017-10-29T04:20:20Z
2017-10-29T02:20:29Z,42.805,6.029,13.2961,4.59971,2471.957,2017-10-29T04:21:55Z
2017-10-29T02:22:04Z,42.805,6.029,13.2979,4.59973,2471.979,2017-10-29T04:23:30Z
2017-10-29T02:23:39Z,42.805,6.029,13.2951,4.59971,2471.979,2017-10-29T04:25:04Z
2017-10-29T02:25:13Z,42.805,6.029,13.2954,4.59977,2471.979,2017-10-29T04:26:39Z
2017-10-29T02:26:48Z,42.805,6.029,13.2959,4.59976,2471.979,2017-10-29T04:28:14Z
2017-10-29T02:28:23Z,42.805,6.029,13.2968,4.59975,2472.024,2017-10-29T04:29:49Z
2017-10-29T02:29:58Z,42.805,6.029,13.2957,4.59978,2472.016,2017-10-29T04:31:24Z
2017-10-29T02:31:33Z,42.805,6.029,13.2989,4.59975,2471.979,2017-10-29T04:32:59Z
2017-10-29T02:33:08Z,42.805,6.029,13.2957,4.59973,2471.979,2017-10-29T04:34:33Z
2017-10-29T02:34:42Z,42.805,6.029,13.2956,4.59984,2471.979,2017-10-29T04:36:08Z
2017-10-29T02:36:17Z,42.805,6.029,13.2987,4.59975,2472.002,2017-10-29T04:37:43Z
2017-10-29T02:37:52Z,42.805,6.029,13.2962,4.59975,2472.002,2017-10-29T04:39:18Z
2017-10-29T02:39:27Z,42.805,6.029,13.2961,4.59977,2471.964,2017-10-29T04:40:53Z
2017-10-29T02:41:02Z,42.805,6.029,13.2960,4.59984,2471.979,2017-10-29T04:42:28Z
2017-10-29T02:42:37Z,42.805,6.029,13.2966,4.59981,2471.957,2017-10-29T04:44:02Z
2017-10-29T02:44:11Z,42.805,6.029,13.2973,4.59976,2471.987,2017-10-29T04:45:37Z
2017-10-29T02:45:46Z,42.805,6.029,13.2963,4.59978,2471.979,2017-10-29T04:47:12Z
2017-10-29T02:47:21Z,42.805,6.029,13.2973,4.59978,2472.002,2017-10-29T04:48:47Z
2017-10-29T02:48:56Z,42.805,6.029,13.2967,4.59980,2471.964,2017-10-29T04:50:22Z
2017-10-29T02:50:31Z,42.805,6.029,13.2957,4.59977,2471.957,2017-10-29T04:51:57Z
2017-10-29T02:52:06Z,42.805,6.029,13.2956,4.59974,2471.979,2017-10-29T04:53:31Z
2017-10-29T02:53:40Z,42.805,6.029,13.2952,4.59981,2471.979,2017-10-29T04:55:06Z
2017-10-29T02:55:15Z,42.805,6.029,13.2973,4.59975,2471.979,2017-10-29T04:56:41Z
2017-10-29T02:56:50Z,42.805,6.029,13.2962,4.59972,2471.964,2017-10-29T04:58:16Z
2017-10-29T02:58:25Z,42.805,6.029,13.2958,4.59973,2471.987,2017-10-29T04:59:51Z
2017-10-29T03:00:00Z,42.805,6.029,13.2966,4.59971,2471.979,2017-10-29T05:01:26Z
2017-10-29T03:01:35Z,42.805,6.029,13.2960,4.59984,2471.979,2017-10-29T05:03:00Z
2017-10-29T03:03:09Z,42.805,6.029,13.2962,4.59974,2471.957,2017-10-29T05:04:35Z
2017-10-29T03:04:44Z,42.805,6.029,13.2969,4.59979,2472.002,2017-10-29T05:06:10Z
2017-10-29T03:06:19Z,42.805,6.029,13.2958,4.59973,2472.002,2017-10-29T05:07:45Z
2017-10-29T03:07:54Z,42.805,6.029,13.2954,4.59981,2472.047,2017-10-29T05:09:20Z
2017-10-29T03:09:29Z,42.805,6.029,13.2961,4.59979,2472.002,2017-10-29T05:10:55Z
2017-10-29T03:11:04Z,42.805,6.029,13.2960,4.59975,2471.987,2017-10-29T05:12:29Z
2017-10-29T03:12:38Z,42.805,6.029,13.2966,4.59974,2471.979,2017-10-29T05:14:04Z
2017-10-29T03:14:13Z,42.805,6.029,13.2954,4.59981,2471.979,2017-10-29T05:15:39Z
2017-10-29T03:15:48Z,42.805,6.029,13.2960,4.59975,2471.942,2017-10-29T05:17:14Z
2017-10-29T03:17:23Z,42.805,6.029,13.2958,4.59979,2471.979,2017-10-29T05:18:49Z
2017-10-29T03:18:58Z,42.805,6.029,13.2968,4.59976,2471.957,2017-10-29T05:20:24Z
2017-10-29T03:20:33Z,42.805,6.029,13.2958,4.59981,2471.979,2017-10-29T05:21:58Z
2017-10-29T03:22:07Z,42.805,6.029,13.2961,4.59978,2471.964,2017-10-29T05:23:33Z
2017-10-29T03:23:42Z,42.805,6.029,13.2960,4.59989,2472.002,2017-10-29T05:25:08Z
2017-10-29T03:25:17Z,42.805,6.029,13.2969,4.59988,2471.987,2017-10-29T05:26:43Z
2017-10-29T03:26:52Z,42.805,6.029,13.2963,4.59984,2471.979,2017-10-29T05:28:18Z
2017-10-29T03:28:27Z,42.805,6.029,13.2959,4.59974,2471.964,2017-10-29T05:29:53Z
2017-10-29T03:30:02Z,42.805,6.029,13.2957,4.59979,2472.002,2017-10-29T05:31:27Z
2017-10-29T03:31:36Z,42.805,6.029,13.2970,4.59979,2471.979,2017-10-29T05:33:02Z
2017-10-29T03:33:11Z,42.805,6.029,13.2966,4.59983,2471.964,2017-10-29T05:34:37Z
2017-10-29T03:34:46Z,42.805,6.029,13.2968,4.59981,2471.964,2017-10-29T05:36:12Z
2017-10-29T03:36:21Z,42.805,6.029,13.2958,4.59994,2472.002,2017-10-29T05:37:47Z
2017-10-29T03:37:56Z,42.805,6.029,13.2957,4.59985,2471.964,2017-10-29T05:39:22Z
2017-10-29T03:39:31Z,42.805,6.029,13.2953,4.59977,2471.979,2017-10-29T05:40:56Z
2017-10-29T03:41:05Z,42.805,6.029,13.2982,4.59973,2471.964,2017-10-29T05:42:31Z
2017-10-29T03:42:40Z,42.805,6.029,13.2961,4.59975,2471.979,2017-10-29T05:44:06Z
2017-10-29T03:44:15Z,42.805,6.029,13.2954,4.59979,2471.957,2017-10-29T05:45:41Z
2017-10-29T03:45:50Z,42.805,6.029,13.2958,4.59986,2472.002,2017-10-29T05:47:16Z
2017-10-29T03:47:25Z,42.805,6.029,13.2970,4.59987,2471.979,2017-10-29T05:48:51Z
2017-10-29T03:49:00Z,42.805,6.029,13.2957,4.59979,2471.964,2017-10-29T05:50:25Z
2017-10-29T03:50:34Z,42.805,6.029,13.2965,4.59978,2472.002,2017-10-29T05:52:00Z
2017-10-29T03:52:09Z,42.805,6.029,13.2965,4.59976,2471.979,2017-10-29T05:53:35Z
2017-10-29T03:53:44Z,42.805,6.029,13.2973,4.59981,2471.957,2017-10-29T05:55:10Z
2017-10-29T03:55:19Z,42.805,6.029,13.2967,4.59981,2471.979,2017-10-29T05:56:45Z
2017-10-29T03:56:54Z,42.805,6.029,13.2955,4.59983,2471.964,2017-10-29T05:58:20Z
2017-10-29T03:58:29Z,42.805,6.029,13.2954,4.59978,2472.002,2017-10-29T05:59:54Z
2017-10-29T04:00:04Z,42.805,6.029,13.2964,4.60004,2471.987,2017-10-29T06:01:29Z
2017-10-29T04:01:38Z,42.805,6.029,13.2982,4.59991,2471.964,2017-10-29T06:03:04Z
2017-10-29T04:03:13Z,42.805,6.029,13.2977,4.59986,2471.979,2017-10-29T06:04:39Z
2017-10-29T04:04:48Z,42.805,6.029,13.2964,4.59977,2471.979,2017-10-29T06:06:14Z
2017-10-29T04:06:23Z,42.805,6.029,13.2949,4.59980,2471.979,2017-10-29T06:07:49Z
2017-10-29T04:07:58Z,42.805,6.029,13.2955,4.59969,2471.979,2017-10-29T06:09:24Z
2017-10-29T04:09:33Z,42.805,6.029,13.2957,4.59974,2471.979,2017-10-29T06:10:58Z
2017-10-29T04:11:07Z,42.805,6.029,13.2957,4.59985,2471.979,2017-10-29T06:12:33Z
2017-10-29T04:12:42Z,42.805,6.029,13.2968,4.59971,2472.002,2017-10-29T06:14:08Z
2017-10-29T04:14:17Z,42.805,6.029,13.2968,4.59979,2471.979,2017-10-29T06:15:43Z
2017-10-29T04:15:52Z,42.805,6.029,13.2959,4.59979,2471.957,2017-10-29T06:17:18Z
2017-10-29T04:17:27Z,42.805,6.029,13.2962,4.59975,2471.979,2017-10-29T06:18:53Z
2017-10-29T04:19:02Z,42.805,6.029,13.2970,4.59979,2471.979,2017-10-29T06:20:27Z
2017-10-29T04:20:36Z,42.805,6.029,13.2963,4.59979,2471.979,2017-10-29T06:22:02Z
2017-10-29T04:22:11Z,42.805,6.029,13.2985,4.59983,2471.964,2017-10-29T06:23:37Z
2017-10-29T04:23:46Z,42.805,6.029,13.2967,4.59981,2471.957,2017-10-29T06:25:12Z
2017-10-29T04:25:21Z,42.805,6.029,13.2973,4.59981,2471.942,2017-10-29T06:26:47Z
2017-10-29T04:26:56Z,42.805,6.029,13.2970,4.59988,2471.979,2017-10-29T06:28:22Z
2017-10-29T04:28:31Z,42.805,6.029,13.2973,4.59989,2471.979,2017-10-29T06:29:56Z
2017-10-29T04:30:05Z,42.805,6.029,13.2975,4.59993,2471.942,2017-10-29T06:31:31Z
2017-10-29T04:31:40Z,42.805,6.029,13.2979,4.59985,2471.964,2017-10-29T06:33:06Z
2017-10-29T04:33:15Z,42.805,6.029,13.2961,4.59994,2472.002,2017-10-29T06:34:41Z
2017-10-29T04:34:50Z,42.805,6.029,13.2964,4.59985,2471.957,2017-10-29T06:36:16Z
2017-10-29T04:36:25Z,42.805,6.029,13.2979,4.59977,2471.934,2017-10-29T06:37:51Z
2017-10-29T04:38:00Z,42.805,6.029,13.2972,4.59991,2471.942,2017-10-29T06:39:25Z
2017-10-29T04:39:34Z,42.805,6.029,13.2973,4.59978,2471.979,2017-10-29T06:41:00Z
2017-10-29T04:41:09Z,42.805,6.029,13.2966,4.59994,2471.964,2017-10-29T06:42:35Z
2017-10-29T04:42:44Z,42.805,6.029,13.2984,4.59988,2471.979,2017-10-29T06:44:10Z
2017-10-29T04:44:19Z,42.805,6.029,13.2978,4.59978,2471.987,2017-10-29T06:45:45Z
2017-10-29T04:45:54Z,42.805,6.029,13.2966,4.59987,2471.979,2017-10-29T06:47:20Z
2017-10-29T04:47:29Z,42.805,6.029,13.2969,4.59981,2471.979,2017-10-29T06:48:54Z
2017-10-29T04:49:03Z,42.805,6.029,13.2992,4.59983,2471.957,2017-10-29T06:50:29Z
2017-10-29T04:50:38Z,42.805,6.029,13.2971,4.59995,2471.964,2017-10-29T06:52:04Z
2017-10-29T04:52:13Z,42.805,6.029,13.2972,4.59995,2471.957,2017-10-29T06:53:39Z
2017-10-29T04:53:48Z,42.805,6.029,13.2958,4.60000,2471.957,2017-10-29T06:55:14Z
2017-10-29T04:55:23Z,42.805,6.029,13.2966,4.59987,2471.957,2017-10-29T06:56:49Z
2017-10-29T04:56:58Z,42.805,6.029,13.2970,4.59999,2471.957,2017-10-29T06:58:23Z
2017-10-29T04:58:32Z,42.805,6.029,13.2975,4.60006,2471.979,2017-10-29T06:59:58Z
2017-10-29T05:00:07Z,42.805,6.029,13.2977,4.59983,2471.957,2017-10-29T07:01:33Z
2017-10-29T05:01:42Z,42.805,6.029,13.2968,4.59978,2471.979,2017-10-29T07:03:08Z
2017-10-29T05:03:17Z,42.805,6.029,13.2958,4.59996,2471.957,2017-10-29T07:04:43Z
2017-10-29T05:04:52Z,42.805,6.029,13.2982,4.59983,2471.979,2017-10-29T07:06:18Z
2017-10-29T05:06:27Z,42.805,6.029,13.2986,4.59985,2471.957,2017-10-29T07:07:52Z
2017-10-29T05:08:01Z,42.805,6.029,13.2961,4.59983,2471.957,2017-10-29T07:09:27Z
2017-10-29T05:09:36Z,42.805,6.029,13.2940,4.59982,2471.979,2017-10-29T07:11:02Z
2017-10-29T05:11:11Z,42.805,6.029,13.2936,4.59975,2471.964,2017-10-29T07:12:37Z
2017-10-29T05:12:46Z,42.805,6.029,13.2938,4.59976,2471.987,2017-10-29T07:14:12Z
2017-10-29T05:14:21Z,42.805,6.029,13.2963,4.59986,2471.957,2017-10-29T07:15:47Z
2017-10-29T05:15:56Z,42.805,6.029,13.2941,4.60012,2471.964,2017-10-29T07:17:21Z
2017-10-29T05:17:30Z,42.805,6.029,13.2959,4.60004,2471.934,2017-10-29T07:18:56Z
2017-10-29T05:19:05Z,42.805,6.029,13.2983,4.60020,2471.957,2017-10-29T07:20:31Z
2017-10-29T05:20:40Z,42.805,6.029,13.2982,4.60010,2471.979,2017-10-29T07:22:06Z
2017-10-29T05:22:15Z,42.805,6.029,13.2991,4.59997,2471.979,2017-10-29T07:23:41Z
2017-10-29T05:23:50Z,42.805,6.029,13.2985,4.60035,2471.957,2017-10-29T07:25:16Z
2017-10-29T05:25:25Z,42.805,6.029,13.2966,4.59995,2471.957,2017-10-29T07:26:50Z
2017-10-29T05:26:59Z,42.805,6.029,13.2974,4.59986,2471.957,2017-10-29T07:28:25Z
2017-10-29T05:28:34Z,42.805,6.029,13.2945,4.60017,2471.964,2017-10-29T07:30:00Z
2017-10-29T05:30:09Z,42.805,6.029,13.2940,4.59975,2471.934,2017-10-29T07:31:35Z
2017-10-29T05:31:44Z,42.805,6.029,13.2936,4.59971,2471.934,2017-10-29T07:33:10Z
2017-10-29T05:33:19Z,42.805,6.029,13.2939,4.59976,2471.957,2017-10-29T07:34:45Z
2017-10-29T05:34:54Z,42.805,6.029,13.2935,4.59967,2471.957,2017-10-29T07:36:20Z
2017-10-29T05:36:29Z,42.805,6.029,13.2937,4.59971,2471.987,2017-10-29T07:37:54Z
2017-10-29T05:38:03Z,42.805,6.029,13.2934,4.59965,2471.957,2017-10-29T07:39:29Z
2017-10-29T05:39:38Z,42.805,6.029,13.2935,4.59958,2471.957,2017-10-29T07:41:04Z
2017-10-29T05:41:13Z,42.805,6.029,13.2940,4.59968,2471.979,2017-10-29T07:42:39Z
2017-10-29T05:42:48Z,42.805,6.029,13.2940,4.59973,2471.934,2017-10-29T07:44:14Z
2017-10-29T05:44:23Z,42.805,6.029,13.2937,4.59982,2471.942,2017-10-29T07:45:49Z
2017-10-29T05:45:58Z,42.805,6.029,13.2945,4.60003,2471.957,2017-10-29T07:47:23Z
2017-10-29T05:47:32Z,42.805,6.029,13.2939,4.59989,2471.964,2017-10-29T07:48:58Z
2017-10-29T05:49:07Z,42.805,6.029,13.2937,4.59971,2471.979,2017-10-29T07:50:33Z
2017-10-29T05:50:42Z,42.805,6.029,13.2935,4.59973,2471.957,2017-10-29T07:52:08Z
2017-10-29T05:52:17Z,42.805,6.029,13.2941,4.59970,2471.934,2017-10-29T07:53:43Z
2017-10-29T05:53:52Z,42.805,6.029,13.2935,4.59971,2471.964,2017-10-29T07:55:18Z
2017-10-29T05:55:27Z,42.805,6.029,13.2936,4.59965,2471.957,2017-10-29T07:56:52Z
2017-10-29T05:57:01Z,42.805,6.029,13.2937,4.59971,2471.919,2017-10-29T07:58:27Z
2017-10-29T05:58:36Z,42.805,6.029,13.2957,4.59978,2471.979,2017-10-29T08:00:02Z
2017-10-29T06:00:11Z,42.805,6.029,13.2975,4.59988,2471.957,2017-10-29T08:01:37Z
2017-10-29T06:01:46Z,42.805,6.029,13.2973,4.59997,2471.957,2017-10-29T08:03:12Z
2017-10-29T06:03:21Z,42.805,6.029,13.2978,4.60017,2471.919,2017-10-29T08:04:47Z
2017-10-29T06:04:56Z,42.805,6.029,13.2986,4.60001,2471.957,2017-10-29T08:06:21Z
2017-10-29T06:06:30Z,42.805,6.029,13.2971,4.60005,2471.919,2017-10-29T08:07:56Z
2017-10-29T06:08:05Z,42.805,6.029,13.2982,4.59997,2471.934,2017-10-29T08:09:31Z
2017-10-29T06:09:40Z,42.805,6.029,13.2985,4.60006,2471.934,2017-10-29T08:11:06Z
2017-10-29T06:11:15Z,42.805,6.029,13.2987,4.60008,2471.919,2017-10-29T08:12:41Z
2017-10-29T06:12:50Z,42.805,6.029,13.3037,4.60029,2471.979,2017-10-29T08:14:16Z
2017-10-29T06:14:25Z,42.805,6.029,13.3021,4.60005,2471.934,2017-10-29T08:15:50Z
2017-10-29T06:15:59Z,42.805,6.029,13.2991,4.60004,2471.912,2017-10-29T08:17:25Z
2017-10-29T06:17:34Z,42.805,6.029,13.2988,4.60029,2471.912,2017-10-29T08:19:00Z
2017-10-29T06:19:09Z,42.805,6.029,13.2991,4.60004,2471.934,2017-10-29T08:20:35Z
2017-10-29T06:20:44Z,42.805,6.029,13.2998,4.60011,2471.912,2017-10-29T08:22:10Z
2017-10-29T06:22:19Z,42.805,6.029,13.2996,4.60029,2471.957,2017-10-29T08:23:45Z
2017-10-29T06:23:54Z,42.805,6.029,13.3010,4.60025,2471.949,2017-10-29T08:25:19Z
2017-10-29T06:25:28Z,42.805,6.029,13.2943,4.60009,2471.934,2017-10-29T08:26:54Z
2017-10-29T06:27:03Z,42.805,6.029,13.2976,4.60023,2471.957,2017-10-29T08:28:29Z
2017-10-29T06:28:38Z,42.805,6.029,13.2979,4.60063,2471.934,2017-10-29T08:30:04Z
2017-10-29T06:30:13Z,42.805,6.029,13.2988,4.60060,2471.934,2017-10-29T08:31:39Z
2017-10-29T06:31:48Z,42.805,6.029,13.3000,4.60015,2471.934,2017-10-29T08:33:14Z
2017-10-29T06:33:23Z,42.805,6.029,13.3008,4.60015,2471.934,2017-10-29T08:34:48Z
2017-10-29T06:34:57Z,42.805,6.029,13.3010,4.60010,2471.934,2017-10-29T08:36:23Z
2017-10-29T06:36:32Z,42.805,6.029,13.2998,4.60001,2471.942,2017-10-29T08:37:58Z
2017-10-29T06:38:07Z,42.805,6.029,13.2992,4.60003,2471.957,2017-10-29T08:39:33Z
2017-10-29T06:39:42Z,42.805,6.029,13.3021,4.59997,2471.934,2017-10-29T08:41:08Z
2017-10-29T06:41:17Z,42.805,6.029,13.2996,4.59998,2471.919,2017-10-29T08:42:43Z
2017-10-29T06:42:52Z,42.805,6.029,13.3007,4.60008,2471.957,2017-10-29T08:44:17Z
2017-10-29T06:44:26Z,42.805,6.029,13.2992,4.59985,2471.919,2017-10-29T08:45:52Z
2017-10-29T06:46:01Z,42.805,6.029,13.3000,4.59990,2471.934,2017-10-29T08:47:27Z
2017-10-29T06:47:36Z,42.805,6.029,13.2995,4.59996,2471.971,2017-10-29T08:49:02Z
2017-10-29T06:49:11Z,42.805,6.029,13.2995,4.60043,2471.934,2017-10-29T08:50:37Z
2017-10-29T06:50:46Z,42.805,6.029,13.2993,4.60009,2471.934,2017-10-29T08:52:12Z
2017-10-29T06:52:21Z,42.805,6.029,13.3004,4.60003,2471.957,2017-10-29T08:53:46Z
2017-10-29T06:53:55Z,42.805,6.029,13.3000,4.60015,2471.912,2017-10-29T08:55:21Z
2017-10-29T06:55:30Z,42.805,6.029,13.2984,4.60018,2471.934,2017-10-29T08:56:56Z
2017-10-29T06:57:05Z,42.805,6.029,13.2996,4.59998,2471.934,2017-10-29T08:58:31Z
2017-10-29T06:58:40Z,42.805,6.029,13.3000,4.59983,2471.934,2017-10-29T09:00:06Z
2017-10-29T07:00:15Z,42.805,6.029,13.3004,4.60003,2471.934,2017-10-29T09:01:41Z
2017-10-29T07:01:50Z,42.805,6.029,13.3013,4.60024,2471.934,2017-10-29T09:03:15Z
2017-10-29T07:03:24Z,42.805,6.029,13.2967,4.60044,2471.942,2017-10-29T09:04:50Z
2017-10-29T07:04:59Z,42.805,6.029,13.3002,4.60000,2471.957,2017-10-29T09:06:25Z
2017-10-29T07:06:34Z,42.805,6.029,13.2991,4.59977,2471.934,2017-10-29T09:08:00Z
2017-10-29T07:08:09Z,42.805,6.029,13.2963,4.59998,2471.919,2017-10-29T09:09:35Z
2017-10-29T07:09:44Z,42.805,6.029,13.2961,4.59986,2471.912,2017-10-29T09:11:10Z
2017-10-29T07:11:19Z,42.805,6.029,13.2961,4.60011,2471.942,2017-10-29T09:12:44Z
2017-10-29T07:12:53Z,42.805,6.029,13.2965,4.59993,2471.934,2017-10-29T09:14:19Z
2017-10-29T07:14:28Z,42.805,6.029,13.2968,4.60003,2471.919,2017-10-29T09:15:54Z
2017-10-29T07:16:03Z,42.805,6.029,13.2982,4.59994,2471.912,2017-10-29T09:17:29Z
2017-10-29T07:17:38Z,42.805,6.029,13.3004,4.59992,2471.934,2017-10-29T09:19:04Z
2017-10-29T07:19:13Z,42.805,6.029,13.3018,4.60018,2471.919,2017-10-29T09:20:39Z
2017-10-29T07:20:48Z,42.805,6.029,13.3006,4.60005,2471.934,2017-10-29T09:22:13Z
2017-10-29T07:22:22Z,42.805,6.029,13.3001,4.59997,2471.934,2017-10-29T09:23:48Z
2017-10-29T07:23:57Z,42.805,6.029,13.3015,4.59987,2471.971,2017-10-29T09:25:23Z
2017-10-29T07:25:32Z,42.805,6.029,13.2977,4.59998,2471.919,2017-10-29T09:26:58Z
2017-10-29T07:27:07Z,42.805,6.029,13.2962,4.59993,2471.957,2017-10-29T09:28:33Z
2017-10-29T07:28:42Z,42.805,6.029,13.2975,4.59989,2471.979,2017-10-29T09:30:08Z
2017-10-29T07:30:17Z,42.805,6.029,13.2977,4.59986,2471.934,2017-10-29T09:31:42Z
2017-10-29T07:31:51Z,42.805,6.029,13.3006,4.59975,2471.957,2017-10-29T09:33:17Z
2017-10-29T07:33:26Z,42.805,6.029,13.2999,4.60043,2471.919,2017-10-29T09:34:52Z
2017-10-29T07:35:01Z,42.805,6.029,13.2973,4.60024,2471.934,2017-10-29T09:36:27Z
2017-10-29T07:36:36Z,42.805,6.029,13.2997,4.60081,2471.934,2017-10-29T09:38:02Z
2017-10-29T07:38:11Z,42.805,6.029,13.3002,4.60052,2471.942,2017-10-29T09:39:37Z
2017-10-29T07:39:46Z,42.805,6.029,13.3022,4.60052,2471.957,2017-10-29T09:41:12Z
2017-10-29T07:41:21Z,42.805,6.029,13.2975,4.60019,2471.957,2017-10-29T09:42:46Z
2017-10-29T07:42:55Z,42.805,6.029,13.2997,4.60034,2471.957,2017-10-29T09:44:21Z
2017-10-29T07:44:30Z,42.805,6.029,13.3011,4.60031,2471.934,2017-10-29T09:45:56Z
2017-10-29T07:46:05Z,42.805,6.029,13.3027,4.60024,2471.934,2017-10-29T09:47:31Z